Regional Weather Roundup
Issued by NWS Midland/Odessa, TX

Skip options and go directly to product.
Home | Oldest Version | Previous Version | Current Version | All | Text Only | Save Text | Print | Product List | Glossary On

Skip product version selection by date and time.   
197
ASUS44 KMAF 041001
RWRMAF
MIDLAND AREA WEATHER ROUNDUP
NATIONAL WEATHER SERVICE MIDLAND TX
500 AM CDT SAT JUL 04 2015

...IN SOUTHWEST TEXAS AND SOUTHEAST NEW MEXICO...

CITY           SKY/WX    TMP DP  RH WIND       PRES   REMARKS
ALPINE         CLOUDY    69  62  78 CALM      30.12F
ANDREWS        FAIR      71  64  78 S3        30.04F
ARTESIA        CLEAR     70  63  78 CALM      30.06S
BIG SPRING     PTCLDY    74  64  69 SE8       30.05R
CARLSBAD       PTCLDY    70  64  81 N5        30.02S
DRYDEN           N/A     75  68  78 CALM      29.96R
FORT STOCKTON  MOCLDY    73  65  75 SE9       30.01R
GUAD PASS      CLOUDY    67  60  78 NE17      30.15S
HOBBS          PTCLDY    66  63  88 CALM      30.07F
MARFA          CLOUDY   N/A N/A N/A CALM      30.11F
MIDLAND AIRPK  PTCLDY    74  64  69 SE3       30.03S
MIDLAND INTL   PTCLDY    71  64  78 E5        30.03R
ODESSA         PTCLDY    71  64  78 SE7       30.03F
PECOS          MOCLDY    75  63  66 E8        29.98S
PRESIDIO       FAIR      80  64  57 NE8       29.95S
SEMINOLE       PTCLDY    67  60  76 SW3       30.06S
SNYDER         PTCLDY    70  64  80 S5        30.02S
WINK           CLEAR     72  63  73 E6        30.00R
$$
...OTHER STATIONS IN TEXAS...

CITY           SKY/WX    TMP DP  RH WIND       PRES   REMARKS
ABILENE        PTCLDY    75  66  73 S8        29.99F
AMARILLO       CLEAR     63  58  83 S8        30.05F
AUSTIN         CLOUDY    75  75 100 SW3       29.99R
BROWNSVILLE    PTCLDY    77  75  93 S6        29.95S
CORPUS CHRISTI MOCLDY    80  77  90 S10       29.95S
DALLAS FTW     MOCLDY    80  70  71 SW13      29.93S
DEL RIO        CLEAR     76  72  87 E8        29.93R
EL PASO        MOCLDY    79  59  50 E7        30.03R
HOUSTON INT    PTCLDY    79  75  87 S3        29.99R
LUBBOCK        CLOUDY    70  64  81 SW5       30.03F
SAN ANGELO     PTCLDY    74  68  81 S3        30.00R
SAN ANTONIO    MOCLDY    78  73  84 S8        29.99S
WACO           PTCLDY    75  72  90 S9        29.96S
WICHITA FALLS  NOT AVBL
$$
...OTHER LOCATIONS IN NEW MEXICO...

CITY           SKY/WX    TMP DP  RH WIND       PRES   REMARKS
ALAMAGORDO     PTCLDY    72  57  60 N7        30.06S
ALBUQUERQUE    MOCLDY    72  55  55 E3        30.14S
CANNON AFB     MOCLDY    63  61  91 E5        30.10F
CLOVIS         CLOUDY    68  55  64 S7          N/A
HOLLOMAN AFB   PTCLDY    67  63  87 N7        30.04S
ROSWELL        PTCLDY    68  60  75 CALM      30.05F
RUIDOSO        PTCLDY    59  55  88 CALM      30.27F
SANTA FE       MOCLDY    67  52  58 SE3       30.22S
TRUTH OR CONSE MOCLDY    71  60  68 SW3       30.09S
TUCUMCARI      PTCLDY    66  56  70 SW7       30.08F
$$

USA.gov is the U.S. government's official web portal to all federal, state and local government web resources and services.